STARLINK-4063 (53132 NORAD) Tracking and Keplerian Element Data

This shows tracking and keplerian element data for the satellite.

Feedback or suggestion? Click here.




ElementValue
Catalog53132
NameSTARLINK-4063
Epoch Orbit130
Epoch Day269.91667824
Epoch Year2022
RAAN69.4676
Inclination53.2181
Eccentricity0.0001728
Argument of Perigee49.7758
Mean Anonmoly326.9753
Mean Motion15.08808291
Decay Rate0.00048673
L11 53132U 22083A 22269.91667824 .00048673 00000+0 30579-2 0 9996
L22 53132 53.2181 69.4676 0001728 49.7758 326.9753 15.08808291 1303

Live tracking and technical data element details for STARLINK-4063 (NORAD 53132). STARLINK-4063 can be tracked NOW for your location showing map with azimuth and elevation plus other details from your city location.

Track the satellite on the map from your city or location and see movement details for azimuth, elevation, latitude, longitude, range, height, and movement on the map or in text.







IsCatalogInMostPopularTable: catalog: 53132, numindb: 5
Update: records affected: 1



GetName: 53132 STARLINK-4063

Hit Count: updated at: Wed, 28 Sep 2022 22:31:08 GMT